Regional Weather Roundup
Issued by NWS

Home | Current Version | Previous Version | Text Only | Print | Product List | Glossary Off
Versions: 1 2 3 4 5 6 7 8 9 10 11 12 13 14 15 16 17 18 19 20 21 22 23 24 25 26 27 28 29 30 31 32 33 34 35 36 37 38 39 40 41 42 43 44 45 46 47 48 49 50

507
ASUS43 KDTX 220210
RWRMI
MICHIGAN HOURLY REGIONAL WEATHER ROUNDUP
NATIONAL WEATHER SERVICE DETROIT/PONTIAC MI
1000 PM EDT SAT APR 21 2018

NOTE: "FAIR" INDICATES FEW OR NO CLOUDS BELOW 12,000 FEET WITH NO
SIGNIFICANT WEATHER AND/OR OBSTRUCTION TO VISIBILITY.

MIZ047>049-052>055-059>063-066>070-074>076-081>083-220300-
SOUTHEAST LOWER MICHIGAN

CITY           SKY/WX    TMP DP  RH WIND       PRES   REMARKS
ADRIAN         FAIR      45  24  43 SE6       30.41R
ALMA           FAIR      44  32  62 S8        30.39R
ANN ARBOR      FAIR      44  24  45 CALM      30.40S
BAD AXE        FAIR      44  17  34 CALM      30.41R
CARO           FAIR      47  24  40 E3        30.39R
DETROIT CITY   FAIR      45  27  49 S5        30.42R
DETROIT        MOCLDY    44  23  43 S6        30.42R
FLINT          FAIR      41  29  62 CALM      30.39R
GROSSE ILE     FAIR      40  34  79 CALM      30.41S
HILLSDALE      FAIR      46  27  46 SE6       30.38R
HOWELL         FAIR      44  29  53 SE6       30.39R

CITY           SKY/WX    TMP DP  RH WIND       PRES   REMARKS
JACKSON        FAIR      50  24  36 SE3       30.38S
LAMBERTVILLE   FAIR      45  25  45 E3        30.41S
LANSING        FAIR      48  27  44 CALM      30.39R
LAPEER         FAIR      45  20  38 S3        30.40R
MASON          FAIR      47  24  39 CALM      30.38S
MONROE         FAIR      41  20  43 CALM      30.41S
MT. CLEMENS    MOCLDY    39  32  76 S7        30.39R WCI  34
PONTIAC        CLOUDY    48  26  42 S5        30.40R
PORT HOPE        N/A     41  24  51 S3        30.39R
PORT HURON     FAIR      41  27  56 CALM      30.42R
TRI CITIES     FAIR      47  32  56 E5        30.39R
MIDLAND        FAIR      42  32  70 NE3       30.38R
TROY           FAIR      49  26  40 S5        30.43R
SAGINAW HB     FAIR      46  30  53 SE3       30.38S
$$
MIZ043>046-050>051-056>058-064>065-071>073-077>080-220300-
SOUTHWEST LOWER MICHIGAN

CITY           SKY/WX    TMP DP  RH WIND       PRES   REMARKS
BATTLE CREEK   FAIR      51  26  37 SE6       30.38R
BENTON HARBOR  CLOUDY    46  25  43 CALM      30.37S
BIG RAPIDS     FAIR      47  11  23 NW6       30.37R
COLDWATER      CLOUDY    51  26  37 SE3       30.38R
FREMONT        FAIR      42  13  31 CALM      30.38R
HOLLAND        FAIR      41  23  48 CALM      30.39R
GRAND RAPIDS   MOCLDY    50  21  32 W3        30.38R
IONIA          FAIR      46  29  50 CALM      30.37S
KALAMAZOO      FAIR      54  23  30 CALM      30.38R
LUDINGTON      FAIR      36  25  64 CALM      30.38S
MARSHALL       FAIR      48  24  38 E3        30.37R
MOUNT PLEASANT FAIR      48  33  57 S3        30.38R
MUSKEGON       FAIR      40  21  46 CALM      30.39R
SOUTH HAVEN    CLOUDY    46  27  47 CALM      30.38R
$$
MIZ016>042-220300-
NORTHERN LOWER MICHIGAN

CITY           SKY/WX    TMP DP  RH WIND       PRES   REMARKS
ALPENA         FAIR      36  28  73 CALM      30.41R
BEAVER ISLAND  FAIR      34  26  71 CALM      30.40S
BELLAIRE       FAIR      34  24  67 CALM      30.40R
CADILLAC       FAIR      43  16  33 CALM      30.37R
CHARLEVOIX     FAIR      37  22  54 CALM      30.42S
FRANKFORT      FAIR      36  22  55 CALM      30.39R
GAYLORD        FAIR      43  17  35 CALM      30.38R
GRAYLING       FAIR      38  20  49 CALM      30.37R
HARBOR SPRINGS FAIR      38  21  50 CALM      30.40R
HOUGHTON LAKE  FAIR      37  26  64 E7        30.37R WCI  32
MANISTEE       FAIR      36  22  56 CALM      30.39R
OSCODA         FAIR      38  24  57 CALM      30.40S
PELLSTON       FAIR      35  19  52 NW3       30.40R
ROGERS CITY    FAIR      36  22  57 CALM      30.41R
TRAVERSE CITY  FAIR      39  25  57 CALM      30.38R
$$
MIZ007>008-015-220300-
EASTERN UPPER MICHIGAN

CITY           SKY/WX    TMP DP  RH WIND       PRES   REMARKS
KINROSS        FAIR      44  16  32 SW6       30.39R
MACKINAC ISLAN FAIR      40  19  42 SW8       30.40R
NEWBERRY       FAIR      37  25  61 S5        30.38R WCI  33
S. S. MARIE    FAIR      45  21  38 SW8       30.37R
MUNISING         N/A     34  25  69 S6        30.37S WCI  29
$$
MIZ004>006-011>014-085-220300-
CENTRAL UPPER MICHIGAN

CITY           SKY/WX    TMP DP  RH WIND       PRES   REMARKS
MANISTIQUE     FAIR      32  30  94 S7        30.38R WCI  26
ESCANABA       FAIR      37  29  72 E5        30.37R WCI  33
MENOMINEE      FAIR      44  21  40 SW7       30.37R
SAWYER-GWINN   CLEAR     41  14  33 NE3       30.37R
$$
MIZ001>003-009>011-084-220300-
WESTERN UPPER MICHIGAN

CITY           SKY/WX    TMP DP  RH WIND       PRES   REMARKS
IRON MOUNTAIN  FAIR      47  20  34 CALM      30.32R
HOUGHTON       FAIR      39  14  36 E3        30.35R
COPPER HARBOR    N/A     38  20  48 SW6       30.36R WCI  33
IRONWOOD       FAIR      40  21  46 CALM      30.35R
$$

ABBREVIATIONS USED IN REMARKS
   TC - TEMPERATURE IN CELSIUS
  WCI - WIND CHILL INDEX
   HX - HEAT INDEX
  VSB - VISIBILITY





USA.gov is the U.S. government's official web portal to all federal, state and local government web resources and services.